User: anonymous
Location: Mactaquac Provincial Park
(45.9573°N, 66.8897°W)
Time: 19:11:51
(UTC-03:00)
Language:

Cosmos 1766 - Orbit

View from above orbital plane
View from above orbital plane
View from above satellite
View from above satellite

Ground track
Ground track

The orbit data is extracted from the following two-line orbital elements,

1 16881U 86055A   14205.93289803  .00000546  00000-0  35697-4 0  9171
2 16881 082.5129 336.3567 0014174 093.4848 266.8001 15.05700932521888
Epoch (UTC): 24 July 2014 22:23:22
Eccentricity: 0.0014174
inclination: 82.5129°
perigee height: 539 km
apogee height: 559 km
right ascension of ascending node: 336.3567°
argument of perigee: 93.4848°
revolutions per day: 15.05700932
mean anomaly at epoch: 266.8001°
orbit number at epoch: 52188

The dashed part of the orbit path shows where the satellite is in the earth's shadow,  

DLR